www.srh.weather.gov   
NOAA logo - Click to go to the NOAA homepage   NWS logo
Other Surface Observations
Enter Your "City, ST" or zip code   
Current Version              Previous Version:    01  02  03  04  05  06  07  08  09  10  11  12  13  14  15  16  17  18  19  20  21  22  23  24  25  26  27  28  29  30  
   31  32  33  34  35  36  37  38  39  40  41  42  43  44  45  46  47  48  49  50  51  52  53  54  55  56  57  58  59  60  
[Printable]
161
SXHW50 PHFO 012225
OSOHFO

                            W I N D        D A T A
                            ----------------------
                                                                  IN KNOTS
 ID                LOCATION             DATE     TIME     DIR    SPD   GUST
--------   -------------------------   -------  -(HST)-  ----   ----   ----
0000PRIH1  PRINCEVILLE      KAUAI      MSG                MSG    MSG    MSG
0000MLDH1  MOLOAA DAIRY     KAUAI      MSG                MSG    MSG    MSG
0000PHLI   LIHUE            KAUAI      01OCT14   12:00    140      7    MSG
0000PAKH1  POIPU            KAUAI      01OCT14   12:00    180      3      7
0000PAKH1  PORT ALLEN       KAUAI      01OCT14   11:44    167      6      8
0000MKAH1  MAKAHA RIDGE     KAUAI      MSG                MSG    MSG    MSG
0000MNRH1  MANA             KAUAI      01OCT14   11:34    221      3      9
0000PLRH1  PUU LUA          KAUAI      01OCT14   11:35    269      0      2
0000POPH1  PUU OPAE         KAUAI      01OCT14   11:34    179      4     10
0000WHGH1  WAIMEA HEIGHTS   KAUAI      01OCT14   11:35    211      6     10


0000KAHH1  KAHUKU           OAHU       01OCT14   12:00     73      7     14
0000KTAH1  KAHUKU TRNG      OAHU       01OCT14   11:59    108      6     14
0000KFWH1  KII              OAHU       01OCT14   11:45    102     10     13
0000OFRH1  OAHU FOREST NWR  OAHU       01OCT14   11:36    349      4     10
0000PHNG   KANEOHE MCBH     OAHU       01OCT14   12:00     70      6    MSG
0000BELH1  BELLOWS          OAHU       01OCT14   12:00     73      8     10
0000PHNL   HONOLULU AP      OAHU       01OCT14   12:00    150     12    MSG
0000HOFH1  HONOULIULI FWS   OAHU       01OCT14   11:41    155      7     10
0000WWFH1  WAIAWA FWS       OAHU       01OCT14   11:41    161      7     19
0000SCBH1  SCHOFIELD BRKS   OAHU       MSG                335    MSG    MSG
0000SCSH1  SCHOFIELD SOUTH  OAHU       MSG                MSG    MSG    MSG
0000WAFH1  WHEELER AAF      OAHU       01OCT14   11:30    260      1      5
0000PHJR   KALAELOA         OAHU       01OCT14   12:00    150     11    MSG
0000PLHH1  PALEHUA          OAHU       01OCT14   11:36     31      0      0
0000WNVH1  WAIANAE VALLEY   OAHU       01OCT14   11:37    219      6     14
0000WBHH1  WAIANAE HARBOR   OAHU       MSG                MSG    MSG    MSG
0000MKRH1  MAKUA RANGE      OAHU       01OCT14   11:58    272      4      8
0000KKRH1  KUAOKALA         OAHU       01OCT14   11:36    356      0      0


0000MKPH1  MAKAPULAPAI      MOLOKAI    01OCT14   11:29     87     12     16
0000PAFH1  PUU ALII         MOLOKAI    MSG                MSG    MSG    MSG
0000MLKH1  MOLOKAI 1        MOLOKAI    01OCT14   11:37    192      3     11
0000PHMK   MOLOKAI AP       MOLOKAI    01OCT14   12:00    170      9    MSG


0000LNIH1  LANAI 1          LANAI      01OCT14   11:37    222      4      9


0000KRTH1  KAHOOLAWE        KAHOOLAWE  MSG                MSG    MSG    MSG
0000KAOH1  KANELOA          KAHOOLAWE  01OCT14   11:53     89     13     21
0000HKAH1  HONOKANAIA       KAHOOLAWE  01OCT14   11:53     83     12     21


0000PHOG   KAHULUI AP       MAUI       01OCT14   12:00     40     16    MSG
0000KLIH1  KAHULUI HARBOR   MAUI       MSG                MSG    MSG    MSG
0000HI61   HANA             MAUI       01OCT14   11:45     99      6     12
0000HI68   HALEAKALA        MAUI       MSG                MSG    MSG    MSG
0000KLFH1  KULA 1           MAUI       01OCT14   11:48    343      3     10
0000KPGH1  KAUPO GAP        MAUI       01OCT14   11:35    156      5     10
0000HI63   MAALAEA BAY      MAUI       MSG                MSG    MSG    MSG
0000PHJH   KAPALUA-W MAUI   MAUI       01OCT14   12:00     30     15    MSG
0000HI67   LIPOA            MAUI       01OCT14   12:01     70      9    MSG


0000HI88   UPOLU AIRPORT    HAWAII     01OCT14   11:45     68     14     20
0000PHMU   KAMUELA AIRPORT  HAWAII     01OCT14   12:00     30     14    MSG
0000HI87   HONOKAA          HAWAII     01OCT14   11:45      2      1      1
0000HKUH1  HAKALAU          HAWAII     01OCT14   11:45    148      4     10
0000PMLH1  PUU MALI         HAWAII     MSG                MSG    MSG    MSG
0000PHTO   HILO AP          HAWAII     01OCT14   12:00    110      9    MSG
0000PLIH1  PALI 2           HAWAII     01OCT14   12:01    124     12     17
0000KMOH1  KEALAKOMO        HAWAII     01OCT14   11:44     86     12     16
0000KPRH1  KAPAPALA         HAWAII     01OCT14   11:48    103      4     12
0000NENH1  NENE CABIN       HAWAII     MSG                MSG    MSG    MSG
0000LKHH1  LOWER KAHUKU     HAWAII     MSG                MSG    MSG    MSG
0000SOPH1  SOUTH POINT      HAWAII     01OCT14   12:00     78     14     20
0000PHRH1  PUHO CS          HAWAII     MSG                MSG    MSG    MSG
0000PHKO   KONA INTL AP     HAWAII     01OCT14   12:00    250     11    MSG
0000KHOH1  KALOKO-HONOKOHAU HAWAII     01OCT14   12:15    245      8     10
0000KPLH1  KAUPULEHU        HAWAII     01OCT14   11:36    278      9     14
0000PWWH1  PUU WAAWAA       HAWAII     01OCT14   11:37    303      4     14
0000PULH1  PUUANAHULU       HAWAII     MSG                MSG    MSG    MSG
0000KHRH1  KOHALA RANCH     HAWAII     01OCT14   11:35    215      5     10
0000PERH1  PUHE CS          HAWAII     MSG                MSG    MSG    MSG
0000HI89   KAWAIHAE         HAWAII     01OCT14   11:45    263      5      7
0000KWHH1  KAWAIHAE NOS     HAWAII     MSG                MSG    MSG    MSG
0000AHMH1  AHUMOA           HAWAII     01OCT14   11:35    315      6     10
0000WKVH1  WAIKOLOA         HAWAII     01OCT14   11:35    291      7     12
0000KKUH1  KEAUMO           HAWAII     01OCT14   11:34    158      3     10
0000PKAH1  PTA KIPUKA ALALA HAWAII     01OCT14   11:55    344      6     13
0000PKWH1  PTA WEST         HAWAII     01OCT14   11:56    304      9     14
0000PKMH1  PTA KEAMUKU      HAWAII     01OCT14   11:50    288      6     12
0000PTRH1  PTA RANGE 17     HAWAII     01OCT14   11:49    300     10     16




059
SXUS52 KCHS 012225
OSOCHS

MARINE OBSERVATIONS
NATIONAL WEATHER SERVICE CHARLESTON SC
600 PM EDT WED OCT 01 2014

...DOWNTOWN CHARLESTON AND HARBOR...

CITY           SKY/WX    TMP DP  RH WIND       PRES   REMARKS
WATERFRONT PRK   N/A     81 N/A N/A E9          N/A
FORT JOHNSON   NOT AVBL

...LAKE MOULTRIE...

CITY           SKY/WX    TMP DP  RH WIND       PRES   REMARKS
PINOPOLIS        N/A     93  63  36 MISG      29.90R HX  94

...LAKE AND SUPPLEMENTAL COASTAL OBSERVATIONS...

STATION/POSITION TIME  TEMP    WIND        PRES    WAVE   SWELL
                       AIR SEA DIR/SP/G            HT/PER HT/PER/DIR
                 (UTC) (F)     (DEG/KT/KT) (MB)    (FT/S) (FT/S/D)
FORT PULASKI     2200   78      80/  8/  9 1015.5R
SAPELO ISLAND    NOT AVBL
UPR LAKE MARION  NOT AVBL
WINYAH BAY       2200   77     130/  5     1015.0S
LAKE MURRAY      2100   86     210/  2/  2 1013.9S
ACE BASIN NERRS  2200   78     140/  2     1016.0R


...C-MAN AND BUOY OBSERVATIONS...

STATION/POSITION TIME  TEMP    WIND        PRES    WAVE   SWELL
                       AIR SEA DIR/SP/G            HT/PER HT/PER/DIR
                 (UTC) (F)     (DEG/KT/KT) (MB)    (FT/S) (FT/S/D)
BUOY 41004       2200   77 81   40/  8/ 10 1014.7R   3/ 6   2/ 6
BUOY 41008       2200   77 79   50/ 12/ 14 1014.6S   2/ 6   2/ 60/ 6
FOLLY BEACH CMAN 2200   76      90/  9/ 10 1015.6R
CAPERS NS BUOY   2100   77     110/  8/ 10   N/A
FRIPP NS BUOY    NOT AVBL
5E ST. MARYS GA  NOT AVBL
FRYING PAN BUOY  NOT AVBL
BUOY 41025       2200   72     350/ 17/ 19 1014.6R   3/ 7   2/ 50/ 7
CAPE LOOKOUT NC  2200   74      50/ 11/ 13 1014.7R
BUOY 41002       2107   80 81   20/ 10/ 12 1012.8    4/ 6   3/ 20/ 6
BUOY 41010       2200   80 85   10/  6/  8 1013.1R   3/ 7   3/ 10/ 7
BUOY 41012       NOT AVBL
ST AUGUSTINE FL  2200   78      60/ 12/ 14 1014.6R


$$



National Weather Service
Disclaimer
Last Modified: August 31, 2005
Privacy Policy